Weather History for KY63 - November, 2012

Change the Weather History Date:

Sunday, November 25, 2012

  Actual Average (KFFM) Record (KFFM)
Temperature  
Mean Temperature 22 °F -  
Max Temperature 32 °F 31 °F 58 °F (1984)
Min Temperature 12 °F 16 °F -19 °F (1977)
Degree Days  
Heating Degree Days 43    
Moisture  
Dew Point 18 °F    
Average Humidity 80    
Maximum Humidity 93    
Minimum Humidity 68    
Precipitation  
Precipitation 0.00 in - - ()
Sea Level Pressure  
Sea Level Pressure 30.00 in    
Wind  
Wind Speed 16 mph (NW)    
Max Wind Speed 22 mph    
Max Gust Speed 28 mph    
Visibility 10 miles    
Events Snow    
Averages and records for this station are not official NWS values.
T = Trace of Precipitation, MM = Missing Value Source: NWS Daily Summary

Daily Weather History Graph

Daily Weather History Graph

Search for Another Location

Airport or City:

Trip Planner

Search our weather history database for the weather conditions in past years. The results will help you decide how hot, cold, wet, or windy it might be!

Date:

Astronomy

Nov. 25, 2012 Rise Set
Actual Time 7:38 AM CST 4:43 PM CST
Civil Twilight 7:05 AM CST 5:16 PM CST
Nautical Twilight 6:28 AM CST 5:53 PM CST
Astronomical Twilight 5:52 AM CST 6:29 PM CST
Moon 3:06 PM CST (11/25) 4:47 AM CST (11/25)
Length of Visible Light 10h 11m
Length of Day
9h 04m
Waxing Gibbous, 93% of the Moon is Illuminated
Nov 25
Waxing Gibbous
Nov 28
Full
Dec 6
Last Quarter
Dec 13
New
Dec 19
First Quarter

Hourly Weather History & Observations

Time (CST) Temp. Windchill Dew Point Humidity Pressure Visibility Wind Dir Wind Speed Gust Speed Precip Events Conditions
12:15 AM 30.2 °F 17.4 °F 24.8 °F 80% 29.83 in 10.0 mi NW 20.7 mph 25.3 mph N/A   Overcast
12:35 AM 30.2 °F 17.1 °F 24.8 °F 80% 29.83 in 10.0 mi NNW 21.9 mph 26.5 mph N/A   Overcast
1:15 AM 28.4 °F 14.7 °F 26.6 °F 93% 29.84 in 10.0 mi NNW 21.9 mph 26.5 mph N/A   Overcast
1:35 AM 28.4 °F 16.6 °F 26.6 °F 93% 29.85 in 10.0 mi NNW 16.1 mph - N/A   Overcast
1:55 AM 28.4 °F 15.8 °F 24.8 °F 86% 29.87 in 10.0 mi NNW 18.4 mph 27.6 mph N/A   Overcast
2:15 AM 28.4 °F 16.2 °F 24.8 °F 86% 29.88 in 10.0 mi NW 17.3 mph 27.6 mph N/A   Overcast
2:35 AM 28.4 °F 16.2 °F 23.0 °F 80% 29.88 in 10.0 mi NNW 17.3 mph - N/A   Overcast
2:55 AM 26.6 °F 13.8 °F 23.0 °F 86% 29.89 in 10.0 mi NNW 17.3 mph - N/A   Overcast
3:35 AM 24.8 °F 11.9 °F 23.0 °F 93% 29.91 in 10.0 mi NW 16.1 mph 24.2 mph N/A   Overcast
3:55 AM 24.8 °F 11.9 °F 23.0 °F 93% 29.91 in 10.0 mi NW 16.1 mph 23.0 mph N/A   Overcast
4:35 AM 24.8 °F 12.9 °F 21.2 °F 86% 29.91 in 10.0 mi NNW 13.8 mph - N/A   Overcast
4:55 AM 24.8 °F 12.9 °F 21.2 °F 86% 29.91 in 10.0 mi NNW 13.8 mph - N/A   Overcast
5:35 AM 23.0 °F 11.1 °F 21.2 °F 93% 29.92 in 10.0 mi NW 12.7 mph 17.3 mph N/A   Overcast
5:55 AM 23.0 °F 9.6 °F 21.2 °F 93% 29.93 in 10.0 mi NNW 16.1 mph 20.7 mph N/A   Overcast
6:15 AM 23.0 °F 10.6 °F 21.2 °F 93% 29.93 in 10.0 mi NNW 13.8 mph - N/A   Overcast
6:35 AM 23.0 °F 10.1 °F 19.4 °F 86% 29.93 in 10.0 mi NNW 15.0 mph 21.9 mph N/A   Overcast
6:55 AM 23.0 °F 11.1 °F 19.4 °F 86% 29.93 in 10.0 mi NW 12.7 mph 19.6 mph N/A   Overcast
7:15 AM 23.0 °F 11.1 °F 19.4 °F 86% 29.95 in 10.0 mi NW 12.7 mph 18.4 mph N/A   Overcast
7:35 AM 23.0 °F 11.7 °F 19.4 °F 86% 29.95 in 10.0 mi NW 11.5 mph - N/A   Overcast
7:55 AM 23.0 °F 11.7 °F 19.4 °F 86% 29.95 in 10.0 mi NW 11.5 mph - N/A   Overcast
8:35 AM 23.0 °F 12.4 °F 19.4 °F 86% 29.96 in 10.0 mi NW 10.4 mph - N/A   Overcast
8:55 AM 23.0 °F 11.7 °F 19.4 °F 86% 29.97 in 10.0 mi NW 11.5 mph 17.3 mph N/A   Overcast
9:15 AM 23.0 °F 13.9 °F 19.4 °F 86% 29.97 in 10.0 mi WNW 8.1 mph - N/A   Overcast
9:35 AM 24.8 °F 16.1 °F 19.4 °F 80% 29.96 in 10.0 mi WNW 8.1 mph - N/A   Overcast
9:55 AM 24.8 °F 14.0 °F 19.4 °F 80% 29.97 in 10.0 mi WNW 11.5 mph - N/A   Overcast
10:15 AM 26.6 °F 16.2 °F 21.2 °F 80% 29.99 in 10.0 mi WNW 11.5 mph - N/A   Overcast
10:35 AM 26.6 °F 14.7 °F 21.2 °F 80% 30.00 in 10.0 mi WNW 15.0 mph 18.4 mph N/A   Overcast
10:55 AM 24.8 °F 12.4 °F 21.2 °F 86% 29.99 in 10.0 mi WNW 15.0 mph - N/A   Overcast
11:15 AM 26.6 °F 14.3 °F 21.2 °F 80% 29.99 in 10.0 mi West 16.1 mph 19.6 mph N/A   Overcast
11:35 AM 24.8 °F 12.9 °F 19.4 °F 80% 29.99 in 10.0 mi West 13.8 mph - N/A   Overcast
12:15 PM 26.6 °F 15.7 °F 21.2 °F 80% 29.98 in 10.0 mi West 12.7 mph - N/A   Overcast
12:35 PM 26.6 °F 15.7 °F 21.2 °F 80% 29.97 in 10.0 mi West 12.7 mph - N/A   Overcast
12:55 PM 28.4 °F 17.5 °F 23.0 °F 80% 29.97 in 10.0 mi West 13.8 mph 19.6 mph N/A   Mostly Cloudy
1:15 PM 30.2 °F 19.8 °F 23.0 °F 75% 29.96 in 10.0 mi WNW 13.8 mph 21.9 mph N/A   Overcast
1:35 PM 32.0 °F 20.5 °F 23.0 °F 69% 29.96 in 10.0 mi NW 18.4 mph - N/A   Overcast
1:55 PM 30.2 °F 18.1 °F 23.0 °F 75% 29.96 in 10.0 mi NW 18.4 mph 23.0 mph N/A   Overcast
2:15 PM 32.0 °F 22.5 °F 23.0 °F 69% 29.96 in 10.0 mi NW 12.7 mph - N/A   Overcast
2:35 PM 32.0 °F 19.5 °F 23.0 °F 69% 29.96 in 10.0 mi NW 21.9 mph 26.5 mph N/A   Overcast
2:55 PM 30.2 °F 18.5 °F 24.8 °F 80% 29.96 in 10.0 mi NW 17.3 mph 26.5 mph N/A   Overcast
3:15 PM 28.4 °F 16.6 °F 21.2 °F 74% 29.98 in 10.0 mi NNW 16.1 mph 20.7 mph N/A   Overcast
3:35 PM 28.4 °F 16.2 °F 19.4 °F 69% 29.98 in 10.0 mi NNW 17.3 mph 24.2 mph N/A   Overcast
3:55 PM 28.4 °F 15.4 °F 21.2 °F 74% 29.99 in 10.0 mi NNW 19.6 mph 23.0 mph N/A   Overcast
4:15 PM 26.6 °F 14.3 °F 19.4 °F 74% 30.01 in 10.0 mi North 16.1 mph 21.9 mph N/A   Overcast
4:35 PM 26.6 °F 14.3 °F 19.4 °F 74% 30.02 in 10.0 mi NNW 16.1 mph - N/A   Overcast
4:55 PM 26.6 °F 13.8 °F 17.6 °F 69% 30.02 in 10.0 mi NNW 17.3 mph 21.9 mph N/A   Overcast
5:15 PM 26.6 °F 15.2 °F 17.6 °F 69% 30.03 in 10.0 mi NNW 13.8 mph - N/A   Overcast
5:35 PM 24.8 °F 12.9 °F 17.6 °F 74% 30.04 in 10.0 mi NNW 13.8 mph - N/A   Overcast
5:55 PM 23.0 °F 11.7 °F 19.4 °F 86% 30.04 in 10.0 mi NNW 11.5 mph - N/A   Overcast
6:15 PM 23.0 °F 10.6 °F 17.6 °F 80% 30.06 in 10.0 mi NNW 13.8 mph - N/A   Overcast
6:35 PM 21.2 °F 8.9 °F 17.6 °F 86% 30.07 in 10.0 mi NNW 12.7 mph 18.4 mph N/A   Overcast
6:55 PM 21.2 °F 8.3 °F 14.0 °F 74% 30.08 in 10.0 mi North 13.8 mph - N/A   Overcast
7:15 PM 21.2 °F 7.8 °F 12.2 °F 68% 30.09 in 10.0 mi North 15.0 mph - N/A   Overcast
7:35 PM 19.4 °F 6.6 °F 12.2 °F 74% 30.10 in 10.0 mi North 12.7 mph - N/A   Overcast
8:15 PM 19.4 °F 5.5 °F 12.2 °F 74% 30.11 in 10.0 mi NNW 15.0 mph 18.4 mph N/A   Overcast
8:35 PM 19.4 °F 5.5 °F 10.4 °F 68% 30.13 in 10.0 mi North 15.0 mph 19.6 mph N/A   Overcast
8:55 PM 17.6 °F 3.7 °F 10.4 °F 73% 30.13 in 10.0 mi NNW 13.8 mph - N/A Snow Light Snow
9:15 PM 17.6 °F 1.3 °F 8.6 °F 68% 30.14 in 10.0 mi North 19.6 mph 26.5 mph N/A Snow Light Snow
9:35 PM 15.8 °F -1.1 °F 8.6 °F 73% 30.16 in 10.0 mi North 19.6 mph 25.3 mph N/A   Overcast
9:55 PM 15.8 °F -0.6 °F 8.6 °F 73% 30.17 in 10.0 mi North 18.4 mph - N/A   Overcast
10:15 PM 14.0 °F -0.8 °F 8.6 °F 79% 30.18 in 10.0 mi North 13.8 mph 19.6 mph N/A   Overcast
10:35 PM 14.0 °F -0.8 °F 8.6 °F 79% 30.19 in 10.0 mi North 13.8 mph 20.7 mph N/A   Overcast
10:55 PM 14.0 °F -2.0 °F 6.8 °F 73% 30.19 in 10.0 mi North 16.1 mph 19.6 mph N/A   Overcast
11:15 PM 14.0 °F -0.8 °F 6.8 °F 73% 30.20 in 10.0 mi North 13.8 mph - N/A   Overcast
11:35 PM 12.2 °F -4.8 °F 5.0 °F 73% 30.22 in 10.0 mi North 17.3 mph - N/A   Overcast
11:55 PM 12.2 °F -1.0 °F 5.0 °F 73% 30.24 in 10.0 mi North 10.4 mph 18.4 mph N/A   Overcast